SCP
0 0 0 0 0 0 0 0 0 0 0 0 0 0 0 0 0 0 0 0 0 0 0 0 0 0 0 0 0 0 0 0 0 0 0 0 0 0
0 0 0 0 0 0 0 0 0 0 0 0 0 0 0 0 0 0 0 0 0 0 0 0 0 0 0 0 0 0 0 0 0 0 0 0 0 0
0 0 0 0 0 0 0 0 0 0 0 0 0 0 0 0 0 0 0 0 0 0 0 0 0 0 0 0 0 0 0 0 0 0 0 0 0 0
0 0 0 0 0 0 0 0 0 0 0 0 0 0 0 0 0 0 0 0 0 0 0 0 0 0 0 0 0 0 0 0 0 0 0 0 0 0
0 0 0 0 0 0 0 0 0 0 0 0 0 0 0 0 0 0 0 0 0 0 0 0 0 0 0 0 0 0 0 0 0 0 0 0 0 0
0 0 0 0 0 0 0 0 0 0 0 0 0 0 0 0 0 0 0 0 0 0 0 0 0 0 0 0 0 0 0 0 0 0 0 0 0 0
0 0 0 0 0 0 0 0 0 0 0 0 0 0 0 0 0 0 0 0 0 0 0 0 0 0 0 0 0 0 0 0 0 0 0 0 0 0
0 0 0 0 0 0 0 0 0 0 0 0 0 0 0 0 0 0 0 0 0 0 0 0 0 0 0 0 0 0 0 0 0 0 0 0 0 0
0 0 0 0 0 0 0 0 0 0 0 0 0 0 0 0 0 0 0 0 0 0 0 0 0 0 0 0 0 0 0 0 0 0 0 0 0 0
0 0 0 0 0 0 0 0 0 0 0 0 0 0 0 0 0 0 0 0 0 0 0 0 0 0 0 0 0 0 0 0 0 0 0 0 0 0
0 0 0 0 0 0 0 0 0 0 0 0 0 0 0 0 0 0 0 0 0 0 0 0 0 0 0 0 0 0 0 0 0 0 0 0 0 0
0 0 0 0 0 0 0 0 0 0 0 0 0 0 0 0 0 0 0 0 0 0 0 0 0 0 0 0 0 0 0 0 0 0 0 0 0 0
0 0 0 0 0 0 0 0 0 0 0 0 0 0 0 0 0 0 0 0 0 0 0 0 0 0 0 0 0 0 0 0 0 0 0 0 0 0
0 0 0 0 0 0 0 0 0 0 0 0 0 0 0 0 0 0 0 0 0 0 0 0 0 0 0 0 0 0 0 0 0 0 0 0 0 0
0 0 0 0 0 0 0 0 0 0 0 0 0 0 0 0 0 0 0 0 0 0 0 0 0 0 0 0 0 0 0 0 0 0 0 0 0 0
0 0 0 0 0 0 0 0 0 0 0 0 0 0 0 0 0 0 0 0 0 0 0 0 0 0 0 0 0 0 0 0 0 0 0 0 0 0
0 0 0 0 0 0 0 0 0 0 0 0 0 0 0 0 0 0 0 0 0 0 0 0 0 0 0 0 0 0 0 0 0 0 0 0 0 0
0 0 0 0 0 0 0 0 0 0 0 0 0 0 0 0 0 0 0 0 0 0 0 0 0 0 0 0 0 0 0 0 0 0 0 0 0 0
0 0 0 0 0 0 0 0 0 0 0 0 0 0 0 0 0 0 0 0 0 0 0 0 0 0 0 0 0 0 0 0 0 0 0 0 0 0
0 0 0 0 0 0 0 0 0 0 0 0 0 0 0 0 0 0 0 0 0 0 0 0 0 0 0 0 0 0 0 0 0 0 0 0 0 0
0 0 0 0 0 0 0 0 0 0 0 0 0 0 0 0 0 0 0 0 0 0 0 0 0 0 0 0 0 0 0 0 0 0 0 0 0 0
0 0 0 0 0 0 0 0 0 0 0 0 0 0 0 0 0 0 0 0 0 0 0 0 0 0 0 0 0 0 0 0 0 0 0 0 0 0
0 0 0 0 0 0 0 0 0 0 0 0 0 0 0 0 0 0 0 0 0 0 0 0 0 0 0 0 0 0 0 0 0 0 0 0 0 0
Wind_Speed
4 5 5 4 4 4 3 4 5 5 5 3 1 0 1 2 6 3 4 11 12 11 10 10 9 7 6 5 4 3 3 3 2 1 1 3 4 6
2 3 3 3 4 4 4 3 3 4 3 3 2 1 1 2 4 2 2 10 12 11 11 10 9 8 7 5 4 4 3 2 2 1 1 2 4 5
2 3 3 3 3 3 3 3 3 3 3 2 1 2 2 2 2 1 2 4 5 10 10 10 9 8 7 5 5 4 3 2 1 1 1 2 4 5
2 3 3 3 3 3 3 4 3 3 3 3 2 2 2 3 3 2 2 3 4 8 9 9 8 7 7 6 5 5 4 3 3 2 3 3 4 5
2 3 3 4 4 3 3 3 3 3 3 3 2 2 1 2 3 2 2 3 5 8 10 10 11 11 9 8 7 7 6 6 6 6 6 6 6 7
3 3 3 4 4 4 4 4 4 4 3 3 2 2 2 2 3 3 3 3 5 7 9 10 14 15 13 12 11 10 10 10 9 9 9 10 10 11
3 3 4 5 6 4 4 4 4 3 3 3 2 2 2 3 3 3 5 5 6 6 7 6 7 7 8 10 12 13 13 13 12 12 12 12 13 14
4 3 4 5 7 8 8 7 5 4 3 2 2 3 3 3 3 4 6 6 4 4 6 7 6 7 6 6 10 14 15 15 14 13 13 13 13 13
3 2 2 4 5 5 7 7 6 4 2 2 2 2 3 4 5 5 5 5 5 6 7 6 5 7 6 7 13 14 15 15 14 13 13 12 12 12
4 4 4 4 4 4 5 6 5 4 2 2 2 2 2 3 5 5 7 8 8 5 5 5 4 5 6 6 12 14 13 13 13 12 11 9 8 8
5 6 5 5 7 7 6 6 6 4 6 8 7 6 7 7 7 7 8 9 7 3 3 5 5 5 4 4 6 11 11 11 10 10 9 6 4 5
4 5 8 6 6 6 5 6 5 3 4 5 5 5 6 7 8 6 7 8 6 4 3 4 5 4 4 2 2 3 5 7 8 9 9 10 8 3
3 4 4 6 7 7 6 5 4 4 4 5 5 5 5 5 5 5 5 5 5 4 5 5 4 3 4 4 2 2 3 3 2 3 7 10 11 8
4 3 3 6 7 7 6 5 6 5 4 5 5 5 5 5 5 6 7 6 5 5 5 5 4 4 5 4 3 2 1 1 2 3 3 4 6 8
3 4 4 4 5 5 6 5 4 4 4 5 6 5 4 5 6 6 7 8 9 7 5 4 4 5 5 5 4 3 2 1 1 2 2 2 2 2
2 3 4 6 5 5 4 3 3 4 5 5 5 4 4 4 4 4 5 5 6 6 8 9 8 7 5 5 5 3 3 2 1 1 1 2 2 3
3 1 2 2 3 3 2 3 3 4 4 4 4 4 4 4 3 3 4 5 5 4 4 5 7 8 8 5 4 3 3 2 1 1 1 1 1 3
4 3 3 3 3 3 3 3 3 3 3 4 4 4 3 3 3 3 4 5 5 4 4 3 3 4 4 5 5 3 2 2 1 1 0 0 1 2
4 4 3 3 3 3 2 3 3 3 3 4 4 3 3 4 3 3 3 4 4 4 3 2 2 2 2 2 1 3 2 1 0 1 1 1 2 3
3 3 2 2 2 2 2 2 3 3 3 3 3 3 3 3 3 3 3 4 4 3 2 2 2 2 1 3 4 1 2 2 1 1 2 1 1 2
2 2 2 2 2 2 2 2 3 3 3 3 3 3 3 3 3 3 4 4 3 3 3 2 2 2 0 3 3 2 1 1 3 2 1 1 2 2
2 2 2 2 2 2 2 2 2 3 3 3 3 2 2 3 4 4 3 2 1 3 4 3 2 1 1 1 2 4 3 2 2 2 3 5 3 2
2 2 2 2 2 1 1 1 2 2 2 3 3 2 2 2 2 2 3 3 3 4 4 3 2 1 1 1 1 2 4 4 3 2 4 9 13 12
Wind_Direction
198 192 190 184 179 181 172 165 165 184 210 209 193 143 117 113 150 175 167 184 181 180 179 179 179 180 178 171 157 151 153 145 149 185 256 293 305 313
168 174 178 171 171 170 172 172 173 167 184 188 190 178 148 137 159 184 173 176 179 179 179 178 179 180 177 170 156 146 146 148 155 195 310 321 314 312
125 147 158 161 160 160 159 162 167 161 174 165 168 166 151 150 137 165 144 157 172 177 174 172 171 171 168 159 148 141 136 130 113 69 347 325 324 326
105 122 132 133 137 141 154 162 161 162 163 164 163 154 167 167 154 174 169 159 142 157 154 152 149 143 136 128 123 118 114 108 97 69 40 19 5 359
109 122 128 129 131 133 138 140 141 143 134 141 152 150 145 148 145 157 126 106 117 125 118 111 110 106 102 101 99 97 94 90 85 77 68 60 52 46
94 102 110 119 126 128 127 128 129 129 131 133 133 137 142 150 140 137 114 102 105 108 99 99 96 90 87 87 88 87 86 84 82 79 76 73 70 66
74 92 98 112 118 122 127 131 130 130 137 140 147 148 159 155 162 150 131 111 96 108 109 105 97 86 76 76 82 87 86 84 81 81 79 76 74 72
47 72 103 108 114 110 110 115 126 139 150 151 160 165 175 167 148 141 137 127 110 109 105 92 86 82 73 74 85 89 88 86 82 81 81 80 79 77
44 56 90 98 98 112 119 110 91 82 120 154 154 167 165 162 150 148 143 125 115 126 110 95 87 85 76 74 85 88 90 90 87 83 81 82 84 84
38 44 76 85 81 98 107 95 77 53 53 103 113 107 118 140 144 140 124 108 102 108 108 104 102 93 83 71 81 88 89 89 88 84 80 77 85 92
52 50 65 74 81 95 105 105 96 84 72 85 93 99 97 103 118 119 124 128 126 118 103 107 123 113 98 90 87 91 92 92 90 84 76 69 101 126
54 66 63 64 71 80 101 110 111 116 114 103 91 90 90 95 112 125 136 138 132 124 133 118 147 138 120 123 145 125 94 94 98 89 74 56 51 98
43 55 48 52 66 74 85 95 108 104 98 99 90 78 69 69 79 88 103 127 128 120 147 130 153 143 122 131 141 155 157 165 144 98 80 71 62 64
41 45 44 52 71 79 81 85 88 84 86 90 82 75 73 71 73 77 78 78 84 110 137 136 140 145 127 127 141 158 155 152 150 148 132 102 80 71
52 51 55 66 77 79 80 79 78 84 89 89 86 83 84 86 81 76 70 67 63 62 63 73 109 125 126 131 140 151 140 70 72 103 129 143 144 99
46 59 64 69 77 86 79 67 73 88 99 100 100 98 93 91 95 99 95 86 73 51 41 48 63 91 103 111 122 135 140 146 117 96 123 126 120 108
349 33 52 68 74 74 70 72 75 85 93 102 102 98 93 87 89 100 106 97 95 94 70 55 62 70 70 90 112 117 123 129 153 152 87 171 180 144
38 56 55 58 69 75 79 78 77 87 97 103 104 108 109 105 95 83 96 109 114 113 111 109 94 72 62 42 46 114 125 154 174 197 194 152 226 177
58 59 55 52 56 70 85 93 93 94 96 102 108 112 110 108 105 102 104 108 117 126 137 146 139 130 143 158 353 37 108 138 164 248 235 190 196 199
64 69 63 55 62 73 85 94 98 96 94 100 102 103 106 110 112 111 107 114 123 125 122 100 81 80 118 161 158 143 72 101 88 347 313 299 257 195
78 68 60 62 64 68 77 89 97 98 101 101 99 102 108 112 111 107 104 107 122 140 140 141 157 170 72 82 100 138 183 143 149 151 91 23 340 321
99 95 65 51 57 61 62 77 95 98 100 102 107 102 99 108 118 125 139 156 158 127 125 140 161 140 110 170 186 172 181 214 237 220 216 189 177 219
122 107 98 75 53 44 41 79 118 127 122 120 121 119 113 111 120 129 136 134 124 129 135 152 177 204 218 194 148 150 166 182 196 220 258 234 226 231